Wind_Speed
39 38 36 34 35 34 32 32 33 33 33 32 30 27 24 22 19 17 15 12 10 9 10 13 16 16 13 10 8 9 13 14 14 16 18 19 19 21 24 30 37 40 39 37 36 35 34 33 32 33 34 32 30 29 30 30 29 28 28 27 26 25 25 24 25 26 27 29 29 29 28 27 25 24 23 23 23 22 22 22 22 22 21 20 20 20 20
39 41 39 37 37 37 35 34 35 35 34 34 32 29 26 24 21 20 17 15 13 11 10 11 14 15 15 13 11 8 8 9 10 11 11 13 15 15 16 20 27 33 36 35 34 34 33 31 30 30 34 37 36 34 34 34 33 32 31 30 29 28 27 25 25 25 26 28 29 29 28 27 26 25 24 23 23 23 23 23 23 22 22 21 20 20 20
37 41 41 40 40 40 37 36 37 36 36 35 33 31 29 26 23 22 20 17 16 14 11 12 14 14 14 14 13 11 8 6 7 8 6 7 10 12 13 14 17 21 25 27 28 28 28 29 28 27 28 34 38 39 39 38 36 36 35 33 33 31 29 28 28 26 26 27 27 27 27 27 26 25 24 23 22 22 22 22 22 22 22 21 20 20 20
32 38 42 42 42 42 41 38 38 38 37 36 34 32 31 28 25 24 23 21 19 17 15 14 14 14 15 15 14 14 12 10 9 9 5 3 5 8 10 12 13 15 17 19 21 24 26 26 26 26 26 29 33 38 41 42 41 40 38 36 35 33 30 31 32 29 28 28 28 27 26 26 25 24 23 22 21 21 21 21 21 21 21 21 21 20 20
28 32 38 41 42 42 42 41 39 38 37 37 35 34 33 31 27 25 26 25 23 20 17 16 16 16 16 17 17 17 16 14 13 11 9 6 5 6 7 8 9 9 9 10 13 16 19 21 22 24 26 28 30 34 38 42 44 44 41 38 36 34 34 36 36 33 30 29 28 27 26 24 24 23 22 21 21 21 20 20 20 21 22 22 21 20 20
26 28 31 36 39 40 40 41 40 39 38 37 36 36 36 35 31 27 27 28 27 24 21 21 21 21 20 20 20 20 19 18 16 15 13 12 10 9 8 8 8 8 8 8 9 11 14 16 17 19 22 26 29 32 35 38 42 44 44 43 38 37 41 42 39 36 34 30 28 28 26 24 23 22 21 21 20 20 20 21 21 22 22 21 21 21 21
26 26 27 30 33 36 38 40 41 41 39 38 37 37 37 37 35 31 29 30 30 28 26 25 25 24 23 24 24 22 21 20 19 18 16 16 15 13 11 11 11 11 11 11 12 13 14 14 14 17 19 23 28 31 33 37 41 43 44 45 43 41 43 45 41 38 37 33 29 29 28 26 24 22 22 21 21 21 22 22 21 22 22 23 23 23 22
24 25 25 26 28 31 34 38 40 42 42 40 38 36 35 37 37 35 32 32 33 31 29 28 27 25 24 26 25 23 23 21 21 20 18 18 18 16 14 13 14 14 14 13 13 15 15 14 14 15 16 18 23 27 30 33 39 43 43 43 43 42 43 43 40 38 38 35 32 30 29 28 26 23 22 23 24 26 26 25 24 24 25 27 27 26 24
22 23 23 24 25 27 29 32 36 41 43 42 39 36 34 34 35 36 35 35 35 34 32 32 32 27 24 26 25 23 23 23 21 20 19 19 19 17 16 16 17 17 16 15 14 14 14 14 15 14 13 14 18 22 24 26 30 37 40 40 40 40 39 38 36 35 36 35 33 31 29 28 26 24 24 26 28 29 29 29 28 28 28 30 30 29 29
20 21 21 22 23 25 27 28 30 35 40 43 41 37 35 34 34 34 35 35 36 36 34 35 36 30 21 22 24 22 23 23 21 19 19 19 20 19 19 20 21 21 21 19 17 17 16 15 14 13 13 14 15 16 17 17 16 20 26 30 31 31 31 31 31 32 34 34 33 32 31 29 28 26 27 29 29 30 31 30 29 29 29 31 31 31 31
19 20 20 21 22 23 25 27 28 30 35 40 42 39 36 35 34 34 33 34 36 38 37 36 37 31 20 17 19 21 23 24 24 22 21 21 22 21 20 20 20 22 23 22 22 22 22 20 18 15 14 16 17 16 14 11 9 9 12 15 19 20 21 22 23 25 28 31 32 32 32 31 30 29 29 29 28 29 29 29 29 28 28 28 28 28 29
19 20 21 21 22 23 25 27 29 29 31 36 40 39 37 36 35 34 34 33 34 37 37 37 38 36 29 20 15 17 21 24 26 26 24 24 24 24 24 23 21 19 18 18 18 19 18 17 18 17 16 16 17 16 16 14 13 12 10 10 13 15 14 14 15 16 19 22 24 23 23 24 25 24 25 26 26 27 28 28 28 27 27 27 26 26 26
19 21 21 22 23 24 25 27 29 30 31 34 38 39 38 37 37 36 35 34 34 35 36 35 35 36 36 29 19 15 18 23 27 29 28 26 26 27 28 28 27 24 22 20 19 18 17 18 19 19 18 19 18 16 15 15 14 14 14 15 16 17 15 13 13 14 16 18 18 18 17 19 21 22 24 26 26 26 26 27 27 26 27 27 25 24 25
18 19 21 22 23 24 25 26 28 30 31 33 36 39 39 38 37 37 36 34 34 34 34 34 33 31 31 30 24 19 19 20 23 26 26 25 24 25 28 29 29 29 29 28 27 26 26 25 24 23 23 24 24 22 19 17 14 13 14 14 15 16 17 15 14 14 16 16 17 17 18 19 21 23 25 26 26 26 26 27 27 27 27 27 24 24 27
17 17 18 20 22 24 25 26 27 30 31 32 34 37 40 40 39 38 36 34 33 32 32 31 31 29 27 26 24 23 21 19 17 19 20 20 20 22 24 26 27 28 28 27 27 28 27 26 25 25 24 25 25 23 19 17 16 14 13 12 13 15 16 15 14 15 15 16 17 18 19 20 21 23 25 25 25 25 26 27 28 27 27 26 25 26 28
16 16 17 18 20 22 24 25 26 28 31 32 33 35 38 41 41 40 38 36 34 32 32 31 30 28 26 25 24 24 22 20 18 17 16 16 17 19 22 24 25 24 21 20 20 23 25 25 25 24 24 25 25 23 20 20 19 17 16 16 15 16 16 16 16 16 16 16 17 18 19 20 22 23 24 25 25 25 26 26 27 27 27 27 27 28 29
15 16 17 18 19 21 23 24 25 26 29 31 32 33 34 38 40 41 40 39 37 35 34 33 32 30 28 26 26 25 23 21 20 19 17 17 18 19 21 24 25 24 20 17 16 16 19 22 22 21 20 20 21 21 22 22 21 19 19 19 18 17 17 17 18 18 19 19 20 21 22 23 24 24 25 26 26 26 26 27 28 29 30 30 31 31 31
16 16 17 18 19 20 22 23 24 25 26 28 30 31 31 33 37 39 39 40 39 38 37 36 35 34 32 30 29 28 27 26 25 24 23 24 24 23 22 24 25 24 21 19 17 14 14 16 18 17 17 17 17 18 19 20 20 20 20 20 20 20 20 20 21 22 22 23 24 25 26 27 28 28 28 28 28 28 29 29 30 31 32 32 33 33 34
16 15 16 17 18 19 21 23 24 24 24 24 27 29 30 30 33 35 37 37 36 37 39 40 38 36 36 34 33 32 31 30 30 30 29 27 26 24 23 23 24 23 21 18 17 16 16 17 18 19 19 19 19 19 19 19 20 21 21 22 23 23 24 24 25 25 26 26 27 27 28 29 30 30 31 31 32 32 32 33 33 33 33 34 34 35 35
14 14 15 15 16 18 21 22 24 24 24 24 25 27 29 30 31 31 33 34 33 32 35 38 38 37 36 36 35 33 32 32 32 33 31 29 26 24 23 22 22 22 20 18 18 18 18 18 19 20 20 21 21 21 21 21 21 22 23 24 25 26 27 28 28 28 29 29 29 30 30 31 32 33 33 34 35 35 36 36 36 36 36 36 36 36 36
12 13 13 13 14 17 21 22 23 24 25 24 24 27 30 32 31 31 33 34 33 31 32 35 37 36 36 36 35 33 32 31 31 31 31 29 26 24 23 22 21 20 20 19 19 20 20 20 21 21 22 22 23 23 23 23 24 25 26 27 28 29 30 30 31 31 32 32 32 33 33 34 34 35 35 36 37 37 38 38 39 39 39 39 39 38 38
11 11 11 11 12 15 18 21 22 23 25 25 27 29 30 31 31 32 34 36 36 33 31 32 32 31 30 30 30 29 29 29 29 30 29 27 26 24 23 22 22 21 20 20 20 21 22 23 24 24 25 25 26 26 27 28 28 28 29 29 30 31 32 32 33 34 34 35 36 36 36 37 38 38 38 39 39 40 40 41 41 42 42 42 42 42 42
9 8 8 10 12 12 15 19 22 23 25 29 31 31 29 29 31 31 32 34 36 34 30 29 28 26 25 25 25 26 27 28 29 28 27 26 25 25 24 23 23 23 22 22 22 22 23 24 25 27 28 28 29 30 30 31 31 32 32 33 33 34 35 35 36 36 37 37 38 38 39 40 40 41 41 42 42 42 43 43 44 45 45 46 46 46 47
7 6 7 8 10 10 11 17 22 22 22 27 30 28 27 30 32 31 29 28 31 33 32 29 27 24 23 22 22 23 24 25 26 26 26 26 25 25 25 24 24 25 25 25 25 25 25 25 26 27 28 29 31 32 32 33 34 34 34 35 36 36 37 38 38 39 39 40 40 41 41 42 42 43 44 44 45 45 45 46 47 47 48 49 49 50 50
4 4 5 7 8 7 7 12 17 19 20 25 28 26 24 26 27 26 24 22 24 28 29 27 26 24 22 21 21 22 22 23 23 24 24 25 25 25 25 25 25 25 25 25 26 26 26 25 25 26 27 28 29 31 32 33 34 34 35 35 35 36 36 37 38 39 40 40 41 42 43 43 43 44 45 45 46 47 47 48 49 49 50 51 51 52 52
3 3 4 5 6 5 3 5 8 10 14 19 24 23 22 21 21 21 21 20 20 22 23 22 22 22 22 21 21 21 21 21 20 20 21 21 21 21 21 21 22 22 22 22 23 23 23 23 23 23 24 24 25 26 27 29 30 31 32 33 34 34 35 35 36 36 37 38 39 40 41 42 43 44 45 46 46 47 48 49 50 51 51 52 53 53 54
4 4 5 5 4 3 2 4 6 8 10 14 17 18 17 17 17 17 16 17 18 18 19 18 18 19 19 19 19 18 18 18 17 17 17 17 17 17 17 17 18 18 19 20 20 21 21 22 23 23 23 24 24 25 26 27 28 28 29 30 31 32 33 34 35 36 36 37 37 38 39 41 42 43 45 45 46 47 48 49 50 51 52 52 53 54 54
6 6 6 6 4 3 3 4 6 8 9 11 13 15 15 15 15 14 14 14 14 14 15 15 16 16 16 16 16 17 17 16 16 16 16 16 16 16 17 17 18 18 19 20 21 22 23 24 25 26 26 27 27 28 28 29 30 31 31 32 33 34 35 36 38 39 39 40 41 42 42 43 44 45 46 46 47 48 49 50 51 52 52 53 54 54 55
9 7 7 7 6 5 4 5 5 7 8 8 10 11 12 12 12 12 12 12 12 12 13 13 13 14 14 15 15 15 16 16 16 16 16 17 17 18 19 19 20 21 22 23 24 25 26 27 27 28 28 29 30 30 31 32 32 33 34 35 36 37 38 39 40 41 43 44 44 45 46 47 48 48 49 49 49 50 51 51 52 53 54 54 55 56 56
12 10 8 7 7 6 5 5 5 6 7 8 9 10 10 11 11 11 11 11 11 11 11 12 12 13 14 15 15 16 16 17 18 18 19 19 20 21 22 23 23 24 25 25 26 26 27 27 28 28 29 30 31 32 33 34 35 36 37 38 38 39 40 41 42 43 44 45 46 47 48 49 50 51 51 52 53 53 53 54 54 55 55 56 57 57 58
15 13 10 8 7 7 6 6 7 7 7 8 9 10 10 10 10 10 10 10 11 11 12 13 14 15 15 15 16 16 17 17 18 18 19 20 21 22 23 23 24 24 24 25 25 26 27 27 28 29 30 31 33 34 35 36 37 38 39 39 40 41 41 42 43 43 44 45 46 47 48 49 50 51 52 53 54 55 55 56 57 57 58 58 59 59 60
17 15 13 12 10 9 9 10 10 10 10 10 11 11 11 11 11 11 12 12 12 13 13 14 15 15 15 15 15 16 16 17 17 18 19 20 21 21 22 22 22 23 24 24 26 27 28 29 30 31 33 34 35 36 37 38 38 39 40 41 42 43 43 44 44 45 46 46 47 48 49 49 50 50 52 53 53 54 55 56 57 59 59 60 61 61 61
19 17 16 16 15 14 14 13 13 13 13 13 14 13 13 13 13 14 14 13 13 13 13 14 14 14 14 14 14 15 15 16 17 18 18 19 20 20 21 22 23 24 25 26 27 29 30 31 33 34 35 36 36 37 38 39 40 41 42 43 44 45 46 47 48 49 49 50 51 51 52 52 52 53 53 54 55 55 56 57 58 59 60 61 62 62 63
19 18 18 18 17 16 15 15 15 16 16 16 16 16 16 16 16 15 15 14 13 13 13 13 13 13 14 14 15 15 16 16 17 17 18 19 20 21 22 23 24 26 27 28 30 31 32 34 35 36 37 38 39 40 41 42 43 44 45 46 47 48 49 50 51 52 53 54 55 56 56 56 56 57 57 57 57 58 58 59 59 60 61 61 62 63 63
20 20 20 20 19 18 18 18 18 18 18 18 18 18 18 18 17 16 15 15 14 14 14 14 14 14 15 15 15 15 16 16 17 18 19 20 21 22 23 25 26 28 29 31 32 34 35 36 37 39 40 41 42 44 45 46 47 48 50 51 52 53 54 55 56 56 57 58 59 59 60 60 61 61 61 61 61 61 61 61 62 62 63 63 64 64 64
21 22 22 22 22 21 21 21 20 20 19 19 19 19 19 19 18 17 17 16 16 16 15 15 15 15 15 15 15 15 16 17 18 18 20 21 22 24 25 27 29 30 32 34 35 36 38 39 40 42 43 44 45 47 48 49 50 52 53 54 55 57 58 59 59 60 61 61 61 62 62 63 63 64 64 64 65 65 65 65 65 65 65 65 65 65 65
22 22 22 23 23 22 22 22 21 21 21 21 21 20 20 19 18 18 17 17 16 16 16 15 15 15 15 15 15 16 16 17 18 20 21 23 24 26 28 29 31 33 35 36 37 39 40 41 42 43 44 45 47 48 49 51 52 53 55 56 57 58 59 60 61 62 63 64 64 64 64 65 65 65 66 66 67 67 67 68 68 68 68 67 67 66 66
21 21 21 22 22 22 23 22 22 21 21 21 21 21 20 19 18 18 17 17 17 17 16 16 16 15 15 15 15 16 17 18 20 21 23 25 26 28 30 31 33 34 36 37 38 39 40 41 43 44 45 47 48 49 51 52 53 55 56 57 58 59 60 61 62 63 64 65 65 66 66 66 66 66 66 67 67 68 68 68 69 69 69 69 68 68 68
22 22 22 21 22 22 22 22 22 22 22 22 21 21 20 19 19 19 19 18 18 17 17 16 16 16 15 16 16 17 19 20 22 23 25 27 28 30 31 33 34 35 36 37 39 40 41 42 44 45 46 47 49 50 51 53 54 55 57 58 59 60 61 61 62 63 64 65 66 66 67 67 67 67 67 67 67 67 67 67 67 67 67 68 68 68 68
24 23 22 22 21 22 22 22 22 22 22 22 22 21 21 20 20 20 19 19 18 18 17 17 16 16 16 17 18 20 21 22 24 26 27 29 31 32 33 34 35 36 37 39 40 41 42 43 44 46 47 48 49 51 52 53 55 57 58 59 59 59 60 61 62 64 66 67 68 70 70 70 70 70 70 69 68 68 67 67 66 65 64 64 64 65 65
25 24 23 22 21 21 22 22 23 22 22 22 22 21 21 21 21 20 19 19 18 18 17 17 17 17 18 19 20 21 23 24 26 28 30 31 32 33 34 35 36 37 38 39 40 42 43 44 45 47 48 49 51 52 53 55 56 57 57 57 56 57 59 62 65 67 69 70 69 69 69 69 69 69 69 69 69 69 69 68 67 66 64 63 62 62 62
24 23 22 22 21 22 22 23 23 22 21 21 21 21 21 21 20 19 19 19 18 17 17 17 18 19 20 21 22 23 25 27 29 30 32 32 33 34 35 35 36 38 39 40 41 43 44 46 47 48 49 50 52 53 54 55 55 54 53 53 54 57 61 64 65 64 63 61 59 58 57 57 57 57 58 59 61 62 63 64 64 64 64 63 61 60 59
23 22 22 22 22 22 22 22 21 21 21 21 21 21 20 20 19 19 18 18 17 17 18 19 19 20 21 22 23 25 27 29 31 32 32 33 33 34 35 36 37 38 40 41 42 44 45 46 47 48 50 51 52 53 54 53 51 50 49 51 55 58 60 59 55 51 49 48 47 46 46 45 46 46 47 48 50 51 53 55 56 57 58 58 58 57 55
23 23 22 22 22 22 21 21 21 21 21 21 21 20 20 19 19 18 18 17 18 18 19 20 20 21 22 24 26 28 29 31 32 32 33 33 34 34 36 37 38 40 41 42 43 44 45 46 47 48 49 51 52 52 51 49 47 47 48 51 53 54 52 47 42 40 41 41 42 41 41 41 41 41 42 42 43 44 45 46 47 48 49 49 50 50 49
22 22 22 22 21 21 21 21 21 21 21 21 21 20 20 19 19 18 18 18 19 20 20 21 22 23 24 26 28 29 31 32 32 33 33 33 34 35 37 38 40 41 42 43 43 44 45 46 47 48 50 51 51 50 48 45 44 45 48 49 49 47 43 38 37 39 40 40 39 39 39 38 38 38 39 39 39 39 39 40 41 41 41 41 42 44 44
22 21 21 21 21 21 21 21 21 21 21 21 21 20 19 19 19 19 19 20 20 20 21 22 24 25 26 28 29 31 32 32 33 33 33 34 35 36 38 39 40 42 42 43 43 44 45 46 47 49 50 50 49 47 44 43 43 45 46 46 44 40 37 36 38 40 40 39 39 39 38 36 36 35 35 35 36 35 35 35 35 35 35 35 36 37 39
21 21 21 21 21 21 21 22 22 21 21 21 20 19 19 19 19 20 20 20 21 22 23 25 26 27 28 29 30 31 32 32 32 33 33 34 36 37 38 40 41 42 42 43 43 44 45 46 47 48 49 48 46 44 42 41 42 43 43 42 41 38 36 37 38 38 38 37 38 38 37 37 35 34 33 32 33 33 33 33 32 32 32 33 33 33 34
21 21 22 22 22 22 22 22 22 21 20 20 19 19 19 20 20 21 21 21 22 23 25 26 27 28 29 30 31 32 32 32 32 33 34 35 37 38 39 40 41 41 42 42 42 43 44 46 46 47 46 46 44 42 40 40 41 41 40 39 38 37 37 37 37 36 36 36 36 36 36 36 36 34 33 32 31 31 31 31 31 31 31 32 32 33 34
21 21 21 22 22 22 22 21 21 20 19 19 19 19 20 21 21 21 22 22 24 25 26 27 28 29 30 31 32 32 32 32 33 33 35 36 37 38 39 39 40 40 40 41 42 43 44 44 44 44 44 44 43 41 40 39 40 40 39 38 37 37 37 37 36 36 36 36 36 35 34 34 34 33 33 32 31 31 30 30 30 30 30 30 31 31 32
21 21 21 22 21 21 21 20 20 19 19 20 20 20 21 22 22 22 23 24 25 26 27 28 29 30 31 32 32 32 32 33 33 34 35 36 37 38 38 39 39 39 39 40 41 42 42 42 42 42 42 42 41 40 39 39 39 38 38 38 38 38 37 38 39 40 40 39 37 35 34 32 31 30 30 29 29 28 28 29 29 29 29 30 30 30 30
21 21 21 20 20 20 20 20 20 20 21 21 21 22 22 23 24 24 25 26 27 28 29 29 30 30 31 32 32 32 32 33 33 34 36 36 36 37 38 38 38 38 39 40 40 40 40 40 39 40 40 40 39 39 38 38 38 37 37 38 39 40 40 41 42 42 41 39 36 34 32 30 29 28 28 27 27 26 26 26 26 27 27 28 28 29 29
20 19 19 19 20 21 21 21 21 22 22 22 23 23 24 25 26 26 27 28 29 29 29 30 30 31 32 32 32 32 32 33 34 35 35 36 36 37 37 37 37 37 38 39 38 38 37 37 37 38 38 38 37 37 37 37 36 36 35 36 37 39 40 40 40 39 38 36 34 32 30 28 27 26 25 25 24 24 24 24 24 24 25 25 26 27 27
Wind_Direction
226 229 227 220 218 221 225 229 232 233 235 237 236 230 226 222 213 203 205 206 200 210 228 231 239 245 241 240 236 207 197 197 193 193 199 201 202 206 209 211 212 215 217 219 222 225 229 231 231 232 233 233 231 229 228 229 229 229 231 231 234 238 239 237 235 235 235 236 237 239 240 240 239 239 239 239 240 240 238 238 239 239 241 244 246 247 249
226 229 229 225 221 221 222 226 231 233 234 236 235 229 224 220 211 203 205 206 198 202 222 222 223 235 241 240 239 225 204 199 196 197 207 212 210 208 204 202 205 211 216 221 224 227 231 233 234 234 232 230 231 232 232 232 232 232 233 232 232 234 236 235 235 236 236 235 236 238 240 241 240 239 239 240 241 242 242 241 242 242 243 244 246 248 250
226 227 228 227 226 224 223 224 228 231 233 234 234 229 224 219 212 207 206 205 198 198 215 222 217 224 236 243 244 239 228 213 208 211 214 214 214 212 207 204 205 210 217 223 228 230 233 235 237 237 233 229 229 232 233 234 235 235 235 235 234 234 235 236 237 237 237 236 235 235 237 239 241 239 239 239 239 241 243 245 246 247 247 247 247 248 249
228 227 227 229 228 227 227 226 227 230 232 234 232 229 226 221 216 212 209 207 205 204 212 221 219 218 226 238 244 242 237 231 226 228 225 200 201 205 204 206 209 214 221 226 230 232 233 235 237 238 237 234 232 233 234 234 235 235 234 235 237 237 237 241 241 238 237 237 234 233 234 235 238 239 238 238 237 238 240 243 246 248 249 248 247 246 246
235 229 228 230 230 230 229 228 227 229 232 234 233 229 227 225 220 215 212 212 213 212 215 220 222 220 222 231 238 239 236 232 230 232 230 212 196 191 186 189 196 204 217 224 225 226 229 233 237 238 239 239 238 237 236 235 235 236 234 235 237 236 233 236 239 237 236 237 234 233 234 234 234 235 235 236 237 237 238 240 243 246 249 249 250 251 252
244 237 232 231 232 233 232 230 228 228 231 234 234 230 227 226 224 218 215 217 219 219 218 220 223 222 218 221 228 233 234 232 229 232 234 230 224 216 206 202 209 221 235 238 232 230 233 237 242 245 244 242 241 239 235 233 233 233 232 232 233 232 230 232 234 234 234 236 236 234 234 233 231 231 233 237 239 239 240 241 241 245 249 251 253 254 254
247 246 241 236 234 234 234 233 230 229 230 234 234 231 228 227 227 223 218 219 223 224 224 228 232 231 225 219 220 222 225 227 227 229 235 237 237 234 228 228 234 237 239 242 244 245 246 247 250 252 249 244 241 239 235 233 230 228 227 228 229 231 233 233 233 233 233 234 235 235 236 234 231 232 236 239 240 241 243 245 247 248 250 251 251 251 251
247 249 249 245 239 236 236 236 233 230 230 232 233 233 232 231 230 227 222 223 227 229 232 235 237 239 234 225 220 217 216 219 221 223 229 236 239 239 237 236 238 238 239 243 248 253 256 256 254 254 254 250 243 239 236 233 229 226 225 226 226 229 233 234 234 233 231 232 235 237 237 236 233 234 239 241 241 242 243 245 248 249 250 251 251 250 251
244 248 251 251 247 242 238 237 236 232 229 228 229 231 233 234 235 232 228 227 230 234 237 236 237 244 238 221 215 217 218 217 218 218 222 232 239 241 240 241 242 243 244 247 252 256 258 258 258 261 267 265 256 249 245 241 234 228 227 228 228 226 228 231 233 231 228 228 232 234 235 235 232 232 238 242 243 244 245 246 248 248 250 253 254 254 254
240 245 251 252 251 249 244 240 237 233 228 226 227 230 232 235 238 237 234 231 230 235 238 238 241 249 237 208 207 219 226 226 224 221 221 228 235 239 242 246 248 248 248 248 250 252 254 257 262 266 270 270 270 270 264 257 245 229 223 224 226 225 225 229 232 232 229 227 230 233 232 231 230 234 240 243 244 246 248 251 253 252 252 253 254 255 256
241 244 249 251 252 252 248 242 238 235 230 226 225 228 231 233 237 239 238 235 232 234 238 240 244 247 235 206 205 219 232 238 236 231 230 232 236 241 246 248 249 250 250 248 247 249 251 255 260 262 266 270 274 277 275 274 273 252 231 225 223 222 223 225 226 226 224 224 229 235 235 232 231 235 240 243 245 247 250 254 257 257 257 257 257 257 259
246 247 248 250 250 251 249 244 239 236 232 227 225 227 230 232 235 238 240 239 236 236 239 241 246 247 244 238 226 223 233 242 241 238 240 241 242 245 248 250 252 253 249 245 248 251 250 252 257 259 262 267 270 269 270 271 269 260 250 241 229 220 215 216 219 219 220 222 227 233 236 235 235 236 239 244 248 250 252 256 258 259 260 259 260 263 266
246 247 247 248 248 248 248 246 241 237 232 227 226 228 229 230 231 234 237 239 240 240 242 244 248 251 251 253 253 243 237 238 238 239 243 246 248 248 249 252 256 256 253 252 259 262 258 257 260 259 255 255 256 258 261 261 257 249 242 236 227 222 225 235 239 235 233 233 231 230 232 234 236 239 242 247 251 252 254 256 257 258 260 262 264 268 269
247 249 249 249 248 247 246 245 242 238 233 228 227 228 229 229 230 232 234 237 239 241 244 246 248 252 254 253 252 250 244 238 235 236 239 243 248 250 252 255 257 259 260 262 263 262 259 258 257 255 251 249 249 253 256 256 252 245 237 231 231 239 248 255 251 241 237 238 236 234 234 234 237 241 244 246 250 252 253 253 254 256 259 262 265 268 268
250 252 253 251 249 248 246 244 241 238 234 230 227 228 229 231 231 231 231 233 236 239 242 244 244 247 252 249 244 244 250 253 248 242 240 242 245 247 251 255 258 258 260 261 259 257 257 255 252 250 248 246 247 250 251 250 247 242 239 239 244 252 257 257 252 246 242 241 240 239 237 235 237 241 243 245 248 250 251 254 257 259 260 261 263 264 266
252 253 255 254 252 250 248 244 240 237 234 231 229 228 230 231 232 232 232 233 235 237 239 240 240 242 247 248 245 244 251 259 259 251 244 245 250 250 248 251 258 261 259 256 254 255 256 255 252 250 247 244 242 239 236 238 240 241 246 252 253 252 254 255 256 255 252 249 249 247 243 241 241 244 247 249 251 252 253 256 260 262 263 264 265 264 265
253 253 256 257 255 252 249 244 240 237 234 232 230 229 229 230 231 232 233 234 236 237 236 236 237 238 241 244 246 248 250 253 251 246 248 262 273 271 258 252 255 260 259 255 254 255 254 251 247 244 241 237 233 229 228 232 236 238 243 250 253 252 252 254 257 258 258 257 257 255 253 253 254 256 257 257 256 256 257 257 259 261 262 263 265 266 267
252 254 257 260 259 256 250 243 239 235 232 232 232 230 229 230 232 233 234 235 237 238 236 233 233 236 239 243 246 248 250 250 248 247 256 272 281 278 267 257 254 256 257 256 255 255 249 242 239 237 237 236 236 234 234 238 242 245 247 251 252 251 250 250 252 255 256 258 258 257 258 259 260 261 261 260 260 261 262 263 262 262 263 263 264 266 268
255 258 261 261 256 251 246 241 235 230 227 226 228 228 227 228 230 232 234 236 238 237 233 231 232 235 239 242 246 249 251 251 251 252 259 271 276 270 261 255 251 250 251 250 249 249 245 242 242 243 245 248 250 250 249 248 249 251 253 254 256 256 256 255 255 255 257 258 259 259 260 260 261 262 261 261 262 263 264 265 265 265 265 266 266 267 267
257 261 262 260 254 247 242 235 230 225 219 216 219 223 224 224 225 228 232 235 236 233 228 228 231 236 239 240 244 249 251 251 252 254 259 267 267 259 252 248 244 240 240 239 238 240 242 242 243 245 247 250 252 253 253 252 250 250 251 252 254 256 257 258 258 257 258 258 259 260 260 261 261 261 261 262 263 264 264 264 264 264 264 265 266 266 267
254 256 259 264 265 254 243 234 228 222 215 211 213 214 215 217 219 222 227 231 232 231 230 231 235 239 240 240 242 246 248 249 251 254 259 262 259 250 245 245 241 236 236 235 233 234 237 239 241 243 243 245 247 248 250 250 250 251 251 252 253 254 255 257 258 258 259 259 260 260 261 262 262 262 261 262 262 263 263 264 264 264 264 264 264 264 264
254 257 263 275 279 264 245 234 227 219 212 210 207 201 200 206 212 215 221 226 227 228 229 231 234 237 238 237 237 239 242 245 248 250 252 252 247 241 239 241 242 241 240 239 237 237 237 238 241 244 245 246 247 248 250 251 252 253 254 255 256 256 257 257 258 258 259 259 260 260 261 262 262 262 262 262 263 263 263 263 263 264 264 264 264 263 263
259 263 272 283 289 273 245 230 225 222 216 210 204 197 195 200 202 202 204 210 214 216 217 219 223 227 228 228 228 230 234 238 240 241 241 239 236 234 235 238 241 244 245 245 244 243 241 241 242 244 247 249 251 253 254 254 255 255 256 256 257 258 259 259 260 260 260 260 261 262 262 263 263 263 264 264 264 264 264 264 264 264 264 264 264 264 264
263 269 273 282 289 279 247 230 229 226 213 195 189 189 192 195 196 195 195 196 199 203 207 209 211 213 214 216 218 222 226 228 228 228 229 229 229 231 234 236 240 243 246 248 249 249 248 247 246 246 247 249 251 254 256 257 258 259 259 260 260 260 260 261 261 262 263 264 264 265 265 266 266 266 267 266 266 266 266 266 266 266 265 265 266 265 266
252 270 270 273 280 276 248 230 227 222 206 188 182 182 182 181 184 188 189 184 183 188 194 197 198 201 205 209 213 216 219 220 221 223 225 228 230 233 235 238 241 244 248 251 253 254 255 255 254 254 253 253 253 255 256 257 259 261 262 263 264 264 264 264 264 264 264 264 265 266 267 267 268 268 268 268 268 268 268 268 267 267 267 267 267 267 267
204 234 249 261 273 271 239 207 199 193 187 186 185 183 182 181 181 181 179 174 172 177 183 187 190 196 202 207 211 215 218 220 224 227 230 232 235 237 239 242 244 247 250 252 255 257 259 260 260 261 260 260 260 260 260 260 261 262 263 264 266 266 267 267 267 266 266 265 265 265 266 266 267 267 268 268 268 269 269 269 269 268 268 268 268 267 267
182 191 210 231 257 261 209 167 150 142 148 159 163 163 166 173 176 175 172 170 171 174 179 182 186 192 198 202 206 211 216 218 221 225 228 231 234 235 238 240 242 244 248 251 254 257 259 261 263 264 264 265 264 264 264 264 264 264 264 264 265 266 267 267 268 268 268 269 268 268 268 268 268 267 268 268 268 269 269 270 270 270 270 270 270 269 269
193 190 195 202 205 194 174 161 146 136 137 143 145 145 147 151 156 158 159 161 165 170 174 179 183 189 195 199 202 205 209 212 215 219 224 227 231 235 239 242 245 248 251 254 256 259 261 263 264 265 266 266 267 267 267 267 267 267 267 267 267 267 268 268 269 269 270 270 270 270 271 271 270 270 270 270 270 270 270 270 271 271 271 272 272 272 272
210 205 200 195 187 175 167 165 154 141 139 142 145 146 146 147 151 155 157 161 166 171 174 179 183 187 192 198 203 206 209 213 216 221 225 230 235 240 244 248 251 253 255 257 259 260 261 263 264 265 266 267 268 268 269 269 269 269 268 268 268 268 268 269 269 270 270 270 270 271 271 271 271 271 271 270 270 270 270 270 270 270 271 271 272 272 272
217 214 210 203 192 177 165 167 170 162 156 156 159 160 160 160 162 165 171 176 180 183 187 191 195 199 202 206 211 214 218 222 226 230 234 237 240 243 245 248 250 252 254 256 258 259 260 262 263 264 266 267 268 269 270 270 270 270 270 270 270 270 270 270 270 270 270 270 270 271 271 271 271 271 271 271 271 270 270 270 270 270 269 269 269 270 270
219 216 215 214 210 199 188 187 192 191 186 183 184 183 183 183 183 186 196 202 203 204 207 210 213 215 217 219 223 226 228 232 234 237 240 242 244 246 247 249 251 253 255 257 258 260 262 264 265 267 267 268 269 270 270 271 271 272 272 272 272 272 272 272 271 272 272 272 272 272 272 272 272 272 272 272 272 272 271 271 271 270 270 269 269 268 268
222 219 217 219 219 217 214 212 210 208 206 206 208 207 206 207 209 212 217 220 219 219 219 220 222 224 226 228 231 233 236 239 242 244 246 248 249 251 253 255 257 259 261 263 264 266 267 268 269 270 271 271 272 272 272 273 274 274 275 275 276 276 276 276 275 275 275 274 274 274 274 274 274 273 273 273 273 272 272 272 272 271 271 270 270 270 269
220 219 218 218 219 220 221 222 222 220 221 221 222 224 225 227 228 226 225 224 224 224 226 228 230 232 234 237 239 242 245 247 249 251 253 254 256 259 261 263 265 266 268 269 270 271 272 273 273 273 274 274 274 274 275 275 276 277 278 278 279 280 280 280 280 280 279 278 278 277 276 276 275 274 274 273 273 273 272 272 272 272 271 271 271 270 270
215 216 218 220 220 220 223 225 226 226 228 229 230 231 232 233 233 230 228 227 227 228 231 233 236 240 244 247 249 252 253 255 256 258 260 262 264 266 268 270 271 273 274 276 277 277 277 278 278 278 278 278 278 277 278 278 278 279 280 281 282 282 283 283 283 282 282 281 280 280 279 278 277 276 275 274 273 273 272 272 271 271 271 271 271 271 270
215 218 221 222 221 219 218 218 220 222 225 227 228 230 231 232 233 232 230 230 231 232 235 238 242 246 250 252 255 256 258 260 263 265 267 269 272 273 275 276 277 278 279 280 281 281 281 282 282 281 281 281 281 281 281 281 281 282 283 283 284 284 284 284 284 283 283 282 281 280 280 279 278 277 276 275 274 273 272 271 271 270 270 270 270 270 270
217 218 220 222 222 220 218 216 217 218 220 222 224 226 227 229 231 231 232 232 233 236 241 246 250 252 254 256 257 260 262 266 270 272 275 277 279 280 282 283 283 284 284 284 284 284 284 284 283 283 283 283 283 283 284 284 284 285 285 285 285 285 285 285 284 284 283 282 281 280 280 279 278 277 276 275 275 274 273 272 271 270 270 269 269 269 269
216 218 220 222 223 224 223 221 219 218 219 220 222 224 226 227 228 230 232 235 240 245 249 253 255 256 257 259 262 266 270 274 278 280 282 284 285 286 287 287 287 287 287 286 286 287 286 286 286 287 287 287 287 287 287 287 287 288 288 288 287 287 287 286 286 285 284 283 282 281 280 279 278 277 276 275 274 273 273 272 271 271 270 269 269 269 268
219 220 221 223 224 226 226 225 223 221 220 220 221 223 224 224 226 230 234 239 245 250 252 254 254 256 258 262 267 272 276 280 282 285 286 288 288 289 289 289 289 289 289 289 290 290 291 291 291 291 292 292 292 292 292 292 291 291 291 291 291 290 290 289 288 287 286 285 284 283 282 280 279 277 276 274 273 272 271 270 270 269 269 268 268 268 267
222 223 223 224 225 227 228 228 226 224 222 221 222 223 224 225 227 231 236 241 245 248 248 249 251 253 258 264 270 274 278 281 284 286 288 289 290 290 290 290 291 291 292 293 294 294 294 294 295 295 295 295 295 295 295 295 295 295 295 295 294 293 293 292 291 290 289 287 286 285 283 281 280 278 277 275 273 272 271 270 269 268 268 267 267 266 266
223 224 225 226 227 227 228 228 228 226 224 223 222 223 224 226 229 233 237 240 242 243 243 245 249 254 261 267 272 277 281 285 288 290 291 292 292 292 293 293 294 294 295 295 295 295 295 296 296 296 297 297 297 297 297 298 298 298 297 296 296 295 294 294 293 292 291 289 288 285 283 281 279 277 275 274 272 271 270 269 268 268 267 266 266 265 265
225 227 229 230 230 228 227 226 226 226 225 224 223 224 225 228 231 234 236 237 238 240 243 248 254 261 267 273 279 284 288 291 292 293 294 294 294 294 294 294 295 295 295 295 295 296 297 297 298 298 298 298 299 299 299 299 299 298 297 297 297 298 298 298 298 296 295 292 290 287 284 281 278 276 273 271 269 268 267 266 265 265 265 264 264 264 264
229 230 231 232 231 229 227 225 225 224 224 224 224 225 227 230 232 235 235 237 239 243 248 255 262 269 275 281 285 289 291 293 293 294 294 293 293 294 294 294 295 295 296 296 297 298 298 299 299 299 299 300 300 300 300 300 299 298 298 299 301 302 303 304 303 301 299 297 294 291 287 284 280 277 274 271 269 267 265 264 263 262 261 261 261 262 262
232 233 232 231 231 229 228 226 225 224 225 225 226 228 230 232 234 235 236 240 245 251 257 263 270 276 281 285 288 290 292 293 293 293 293 293 294 294 295 296 297 298 298 299 299 300 300 300 301 301 301 301 301 301 301 300 299 299 301 303 305 307 309 309 308 306 304 302 299 296 292 288 284 281 278 275 272 269 267 265 263 261 260 259 258 258 257
234 233 232 231 230 229 228 226 225 225 226 227 228 230 232 233 234 236 240 245 251 257 264 270 276 280 283 286 288 290 292 293 293 293 294 294 295 297 298 300 300 300 301 301 301 302 302 302 302 302 302 302 302 302 302 300 299 301 303 306 309 312 314 314 314 312 310 307 305 301 297 293 289 286 283 281 278 275 272 269 266 264 262 260 257 256 254
231 232 231 230 229 227 226 226 226 226 227 228 229 231 233 233 235 240 246 251 257 264 270 275 279 282 284 287 289 291 292 293 294 295 296 297 298 300 302 302 302 302 303 303 303 303 303 303 303 304 304 304 304 303 301 300 300 302 305 307 311 315 317 315 314 313 312 309 307 305 302 298 294 291 287 285 282 279 276 272 269 266 264 261 258 255 250
227 228 227 226 225 225 225 226 227 227 228 229 230 232 233 236 240 246 252 257 263 269 274 278 280 282 284 287 290 292 294 294 295 296 298 299 301 302 303 303 303 304 304 304 304 304 305 305 305 305 305 305 304 302 300 299 300 303 305 308 311 314 314 311 310 311 310 309 307 306 304 302 299 295 291 288 284 280 276 272 270 266 262 260 258 256 250
225 225 224 223 223 224 226 227 228 228 229 230 231 233 236 241 246 251 256 261 267 271 275 278 280 282 285 288 292 294 295 295 296 297 299 300 302 303 303 304 304 304 304 305 305 306 306 307 307 306 306 306 304 301 298 298 300 303 305 307 308 309 308 306 307 309 310 310 308 305 303 302 300 298 294 290 285 280 275 271 270 267 263 259 257 255 253
223 223 223 224 225 227 228 228 229 229 230 232 234 238 242 247 251 255 259 264 269 273 276 279 281 284 288 291 293 295 295 296 297 298 299 301 302 303 304 304 305 305 306 306 307 307 307 308 308 307 307 306 304 300 298 298 300 301 303 304 304 303 303 304 305 306 308 310 310 308 305 303 300 298 295 292 287 282 277 273 271 269 267 264 261 258 256
223 224 225 226 227 227 228 228 229 230 232 236 239 243 247 250 253 258 263 268 272 276 279 282 284 287 290 292 294 296 297 297 298 299 300 301 302 303 304 305 306 306 307 307 308 308 308 309 309 309 308 307 304 301 299 299 300 300 300 300 301 301 301 302 303 303 305 308 310 311 309 306 303 300 297 293 289 285 280 276 272 271 270 268 267 265 263
224 224 224 225 226 227 228 230 232 235 238 241 244 247 250 253 257 262 268 272 276 279 281 283 286 288 291 294 296 297 297 297 298 299 300 301 302 303 304 306 306 307 308 308 309 309 310 310 311 310 309 308 305 303 301 301 302 300 298 297 297 298 299 300 301 302 303 305 307 309 310 309 307 305 303 299 294 290 285 280 276 273 271 270 269 268 267
225 225 226 228 230 233 235 238 240 242 244 246 249 251 254 258 262 268 272 276 279 281 282 284 287 290 294 295 296 296 297 297 298 299 300 301 302 303 305 306 307 308 309 310 310 311 312 313 313 312 312 310 308 305 303 303 304 303 300 297 296 296 297 298 300 302 303 304 306 307 307 307 307 308 308 305 300 295 290 286 281 277 274 272 271 270 268
230 232 233 236 238 240 242 244 246 247 249 251 253 256 259 263 267 271 275 277 279 281 284 286 289 292 294 295 295 295 296 297 299 300 300 301 302 304 306 308 309 309 310 310 311 313 314 315 315 315 314 313 311 308 306 305 305 305 303 301 299 299 299 299 300 301 302 303 304 305 304 303 303 305 307 308 305 300 295 290 286 282 279 276 274 272 271
Height
5813 5814 5816 5817 5819 5820 5822 5824 5826 5828 5830 5831 5833 5835 5837 5839 5841 5843 5843 5844 5845 5846 5846 5846 5848 5849 5851 5851 5851 5851 5851 5853 5855 5857 5859 5861 5863 5864 5866 5868 5871 5873 5876 5878 5881 5883 5885 5887 5890 5891 5893 5895 5897 5898 5899 5900 5901 5901 5902 5904 5906 5907 5908 5910 5910 5911 5912 5914 5916 5917 5918 5920 5921 5922 5923 5924 5925 5926 5926 5927 5927 5927 5928 5928 5929 5929 5930
5810 5812 5814 5815 5816 5818 5820 5822 5824 5826 5828 5829 5831 5833 5835 5837 5840 5841 5842 5843 5844 5845 5845 5845 5846 5848 5850 5851 5852 5851 5851 5852 5853 5856 5858 5860 5861 5862 5863 5865 5868 5871 5874 5877 5879 5882 5884 5885 5887 5888 5890 5891 5893 5894 5896 5896 5898 5898 5899 5900 5902 5904 5906 5907 5907 5908 5909 5910 5912 5914 5915 5917 5918 5919 5920 5921 5922 5923 5924 5924 5925 5925 5925 5926 5926 5927 5927
5808 5809 5811 5813 5814 5816 5818 5820 5822 5824 5826 5827 5829 5831 5833 5836 5838 5840 5841 5842 5843 5844 5844 5845 5846 5847 5849 5850 5851 5851 5852 5852 5853 5854 5856 5858 5859 5860 5862 5864 5866 5869 5872 5874 5877 5879 5880 5882 5883 5884 5886 5887 5888 5889 5891 5893 5894 5895 5895 5897 5898 5900 5902 5904 5905 5905 5906 5907 5909 5910 5912 5913 5914 5916 5917 5918 5919 5920 5921 5922 5923 5923 5923 5924 5924 5924 5924
5806 5807 5809 5811 5812 5814 5815 5818 5820 5822 5824 5825 5827 5829 5831 5834 5836 5838 5839 5841 5842 5843 5844 5845 5845 5847 5848 5849 5850 5851 5851 5852 5853 5854 5855 5857 5858 5859 5860 5862 5864 5867 5869 5871 5872 5874 5876 5877 5879 5880 5881 5883 5884 5885 5887 5889 5890 5890 5892 5894 5896 5898 5901 5902 5902 5903 5904 5905 5906 5907 5908 5910 5911 5913 5915 5916 5916 5917 5918 5919 5920 5921 5921 5921 5921 5921 5921
5803 5805 5807 5809 5811 5812 5813 5816 5818 5820 5821 5823 5825 5827 5829 5831 5834 5836 5838 5839 5841 5842 5843 5844 5845 5846 5847 5849 5849 5850 5851 5852 5852 5853 5854 5856 5857 5858 5859 5861 5863 5865 5866 5868 5869 5871 5872 5873 5875 5876 5878 5879 5880 5881 5882 5883 5885 5887 5888 5891 5894 5897 5898 5897 5898 5900 5901 5902 5903 5905 5906 5907 5909 5911 5912 5913 5914 5915 5916 5917 5918 5919 5919 5919 5919 5920 5920
5800 5802 5804 5806 5808 5810 5812 5814 5816 5818 5819 5820 5822 5824 5826 5828 5831 5834 5836 5837 5839 5841 5842 5842 5843 5843 5844 5845 5847 5849 5850 5851 5852 5853 5853 5855 5857 5858 5859 5861 5862 5863 5864 5866 5867 5868 5869 5871 5872 5873 5874 5875 5875 5876 5877 5878 5881 5883 5884 5886 5890 5893 5892 5891 5893 5896 5897 5899 5900 5902 5904 5905 5907 5909 5910 5911 5912 5913 5914 5915 5916 5917 5917 5917 5917 5917 5917
5797 5799 5801 5803 5805 5807 5809 5810 5813 5815 5816 5818 5820 5821 5823 5825 5828 5831 5833 5835 5836 5839 5840 5840 5841 5841 5841 5842 5844 5846 5848 5850 5851 5852 5853 5854 5856 5857 5859 5861 5861 5862 5863 5864 5865 5866 5867 5868 5869 5870 5871 5871 5871 5872 5873 5874 5876 5878 5879 5880 5883 5887 5887 5887 5889 5892 5894 5896 5898 5899 5901 5903 5904 5906 5907 5908 5909 5910 5911 5913 5914 5914 5914 5913 5914 5914 5915
5795 5796 5798 5800 5802 5804 5806 5807 5809 5812 5814 5816 5817 5819 5820 5822 5825 5828 5831 5832 5834 5836 5838 5838 5838 5840 5842 5841 5841 5843 5846 5847 5849 5851 5852 5853 5854 5856 5858 5859 5860 5861 5862 5863 5864 5864 5865 5866 5868 5868 5869 5869 5869 5869 5868 5870 5871 5873 5875 5877 5879 5881 5882 5883 5885 5888 5890 5893 5894 5896 5898 5900 5902 5903 5904 5905 5905 5905 5906 5908 5909 5910 5909 5908 5909 5910 5912
5793 5794 5795 5797 5799 5801 5802 5804 5806 5808 5810 5812 5814 5815 5817 5819 5821 5825 5828 5830 5832 5833 5835 5836 5835 5837 5839 5839 5838 5839 5842 5844 5846 5849 5851 5852 5853 5855 5856 5857 5858 5859 5860 5861 5862 5863 5863 5864 5865 5867 5868 5867 5867 5866 5865 5866 5867 5869 5871 5874 5876 5877 5878 5879 5882 5884 5886 5888 5890 5892 5894 5896 5898 5900 5901 5901 5901 5901 5902 5904 5905 5906 5906 5905 5905 5907 5908
5791 5792 5793 5794 5795 5797 5799 5801 5803 5805 5806 5808 5810 5813 5815 5817 5819 5821 5824 5827 5829 5830 5832 5833 5833 5834 5836 5836 5835 5836 5839 5842 5844 5847 5849 5850 5851 5852 5854 5855 5856 5856 5857 5858 5860 5861 5861 5862 5863 5865 5866 5865 5864 5865 5865 5865 5866 5866 5868 5870 5872 5874 5875 5876 5878 5881 5883 5885 5886 5888 5891 5893 5894 5895 5896 5896 5897 5898 5900 5901 5902 5903 5903 5903 5902 5903 5904
5790 5790 5790 5791 5792 5794 5795 5797 5799 5801 5803 5805 5807 5810 5813 5815 5817 5819 5821 5824 5826 5828 5829 5830 5831 5833 5834 5834 5833 5834 5837 5840 5842 5845 5847 5848 5849 5850 5852 5852 5853 5853 5853 5854 5856 5857 5858 5859 5861 5863 5865 5865 5864 5865 5865 5865 5865 5866 5867 5869 5870 5871 5872 5873 5875 5877 5879 5882 5884 5886 5888 5890 5890 5891 5891 5892 5893 5895 5896 5897 5897 5898 5899 5899 5899 5899 5899
5787 5788 5788 5789 5790 5791 5792 5794 5796 5797 5799 5802 5805 5807 5810 5812 5814 5816 5818 5821 5823 5825 5827 5828 5829 5830 5832 5833 5833 5834 5836 5838 5840 5842 5844 5845 5847 5849 5850 5850 5850 5851 5851 5852 5853 5854 5856 5857 5859 5861 5863 5865 5865 5863 5862 5862 5863 5864 5865 5867 5868 5869 5870 5871 5873 5875 5877 5879 5881 5882 5884 5885 5886 5887 5888 5889 5890 5891 5892 5893 5893 5894 5895 5895 5895 5896 5896
5785 5785 5785 5786 5786 5787 5789 5791 5792 5794 5796 5799 5802 5804 5806 5809 5811 5813 5816 5818 5821 5822 5824 5826 5827 5828 5829 5831 5833 5834 5835 5836 5838 5840 5842 5843 5845 5846 5847 5847 5847 5848 5849 5850 5852 5853 5854 5855 5856 5858 5861 5862 5862 5861 5860 5860 5861 5861 5862 5864 5866 5867 5869 5870 5872 5874 5875 5876 5877 5879 5880 5881 5883 5884 5885 5886 5887 5888 5889 5889 5890 5891 5891 5891 5892 5892 5892
5782 5782 5782 5783 5783 5784 5786 5787 5788 5790 5793 5796 5798 5800 5802 5805 5807 5810 5813 5816 5818 5820 5822 5823 5825 5826 5827 5829 5831 5832 5833 5834 5836 5838 5840 5841 5843 5844 5844 5844 5845 5846 5847 5848 5850 5851 5851 5853 5854 5855 5857 5858 5858 5858 5859 5859 5860 5860 5861 5864 5865 5866 5867 5869 5870 5872 5873 5874 5875 5876 5877 5878 5879 5881 5882 5883 5884 5884 5885 5886 5887 5888 5888 5887 5888 5888 5888
5779 5779 5780 5780 5780 5781 5782 5784 5785 5787 5790 5792 5794 5796 5798 5801 5804 5807 5810 5813 5816 5818 5819 5821 5823 5824 5825 5827 5829 5830 5831 5833 5835 5836 5838 5839 5841 5842 5842 5842 5843 5844 5844 5845 5847 5848 5848 5850 5851 5852 5853 5854 5855 5856 5857 5858 5858 5859 5860 5862 5864 5864 5865 5867 5869 5870 5871 5871 5872 5873 5874 5875 5876 5877 5878 5879 5881 5881 5882 5882 5883 5883 5883 5884 5885 5885 5884
5777 5777 5777 5777 5777 5778 5779 5781 5782 5784 5786 5788 5791 5793 5795 5798 5801 5804 5807 5810 5813 5815 5817 5819 5821 5822 5823 5824 5826 5828 5830 5831 5832 5834 5835 5837 5839 5840 5841 5841 5841 5841 5842 5843 5845 5845 5845 5846 5847 5848 5850 5851 5852 5854 5855 5855 5856 5857 5858 5859 5860 5862 5863 5865 5865 5866 5867 5868 5869 5870 5871 5872 5874 5874 5875 5876 5877 5878 5878 5878 5878 5878 5879 5880 5881 5881 5881
5774 5774 5774 5774 5774 5775 5776 5777 5779 5781 5782 5785 5787 5790 5792 5795 5797 5800 5804 5807 5809 5812 5814 5816 5818 5819 5821 5822 5824 5826 5828 5829 5830 5831 5833 5834 5836 5838 5839 5839 5839 5839 5840 5842 5843 5843 5843 5844 5844 5845 5847 5848 5849 5851 5852 5853 5854 5855 5855 5856 5857 5859 5860 5861 5862 5863 5864 5865 5866 5867 5869 5870 5871 5871 5871 5872 5873 5873 5874 5875 5875 5875 5875 5876 5876 5877 5877
5772 5772 5772 5771 5771 5772 5773 5774 5776 5778 5780 5782 5785 5787 5790 5792 5795 5798 5801 5803 5806 5808 5811 5813 5815 5816 5818 5820 5822 5824 5826 5827 5828 5829 5831 5832 5833 5834 5835 5836 5837 5837 5838 5839 5840 5841 5842 5842 5843 5843 5844 5845 5847 5848 5849 5851 5851 5852 5853 5854 5855 5856 5858 5859 5860 5861 5862 5863 5864 5865 5866 5867 5867 5868 5868 5869 5869 5869 5870 5870 5871 5871 5872 5872 5872 5872 5872
5769 5770 5769 5769 5768 5769 5770 5771 5772 5774 5777 5780 5782 5784 5786 5789 5792 5795 5798 5801 5802 5804 5806 5809 5811 5813 5815 5817 5819 5821 5822 5824 5826 5827 5829 5830 5831 5832 5833 5833 5834 5835 5835 5836 5837 5838 5839 5840 5841 5841 5842 5843 5844 5845 5847 5848 5849 5850 5850 5851 5852 5853 5855 5856 5857 5858 5859 5860 5861 5862 5863 5863 5864 5865 5865 5865 5866 5866 5866 5866 5866 5867 5867 5867 5867 5867 5868
5767 5767 5767 5766 5766 5766 5767 5768 5769 5772 5774 5776 5778 5781 5783 5786 5789 5792 5795 5798 5800 5800 5802 5805 5808 5810 5813 5814 5816 5817 5819 5820 5822 5824 5826 5828 5829 5829 5830 5831 5832 5832 5833 5833 5834 5835 5836 5837 5838 5839 5840 5840 5841 5842 5843 5845 5846 5847 5848 5849 5849 5850 5851 5852 5853 5855 5856 5857 5857 5858 5859 5859 5860 5860 5861 5861 5861 5861 5861 5861 5861 5862 5862 5862 5862 5862 5862
5765 5765 5764 5764 5764 5765 5765 5766 5767 5769 5771 5774 5776 5778 5779 5782 5786 5789 5791 5793 5796 5797 5798 5801 5804 5807 5809 5811 5813 5814 5815 5817 5818 5820 5822 5824 5825 5826 5827 5827 5828 5829 5830 5830 5831 5832 5833 5834 5835 5835 5836 5837 5838 5839 5840 5841 5842 5843 5844 5845 5846 5847 5847 5848 5849 5850 5851 5852 5853 5853 5854 5854 5855 5855 5856 5856 5856 5856 5856 5856 5856 5856 5856 5856 5857 5857 5857
5763 5763 5763 5763 5763 5763 5763 5764 5765 5767 5770 5772 5773 5774 5775 5779 5784 5786 5786 5786 5789 5792 5794 5797 5800 5803 5805 5806 5808 5810 5812 5813 5815 5816 5818 5820 5821 5822 5823 5823 5824 5825 5826 5827 5828 5829 5830 5831 5832 5833 5833 5834 5835 5835 5836 5837 5838 5839 5840 5841 5842 5842 5843 5844 5844 5845 5846 5847 5847 5848 5848 5849 5849 5849 5850 5850 5850 5850 5850 5850 5850 5850 5850 5850 5851 5851 5851
5762 5762 5762 5762 5762 5761 5761 5762 5763 5765 5767 5769 5770 5772 5774 5776 5780 5783 5782 5781 5782 5786 5790 5793 5796 5799 5801 5803 5804 5806 5808 5810 5811 5813 5814 5816 5817 5818 5819 5820 5821 5821 5822 5824 5825 5826 5828 5829 5830 5830 5831 5831 5831 5832 5832 5833 5834 5834 5835 5836 5837 5837 5838 5838 5839 5840 5841 5841 5842 5842 5843 5843 5843 5843 5843 5844 5844 5844 5844 5844 5844 5844 5844 5844 5844 5844 5845
5761 5761 5761 5761 5761 5761 5760 5761 5762 5764 5765 5766 5767 5770 5772 5773 5776 5779 5780 5780 5780 5782 5786 5790 5793 5796 5798 5800 5801 5803 5805 5807 5808 5810 5811 5813 5814 5815 5816 5817 5818 5819 5819 5820 5822 5823 5824 5825 5827 5828 5828 5828 5829 5829 5829 5830 5830 5830 5831 5831 5832 5832 5833 5834 5834 5835 5835 5836 5836 5837 5837 5838 5838 5838 5838 5838 5838 5838 5838 5838 5838 5838 5838 5837 5837 5838 5838
5761 5761 5761 5761 5761 5761 5761 5760 5761 5762 5764 5765 5766 5768 5770 5772 5774 5777 5779 5781 5781 5781 5784 5788 5791 5794 5796 5798 5799 5801 5803 5804 5806 5807 5809 5810 5812 5813 5813 5814 5815 5816 5817 5818 5819 5820 5821 5822 5823 5824 5825 5825 5826 5826 5827 5827 5827 5827 5827 5827 5828 5828 5828 5829 5829 5830 5830 5830 5831 5831 5831 5831 5831 5831 5831 5832 5832 5831 5831 5831 5831 5831 5831 5831 5831 5831 5831
5760 5760 5761 5761 5762 5762 5762 5761 5761 5762 5763 5764 5766 5768 5769 5772 5774 5776 5778 5779 5780 5781 5784 5787 5789 5791 5794 5796 5798 5800 5801 5803 5804 5806 5807 5808 5809 5810 5811 5812 5813 5814 5814 5815 5816 5817 5818 5819 5819 5820 5821 5822 5822 5823 5823 5823 5824 5824 5824 5824 5824 5824 5824 5824 5824 5824 5824 5825 5825 5825 5825 5825 5825 5825 5825 5825 5825 5825 5824 5824 5824 5823 5823 5823 5823 5823 5823
5760 5760 5761 5762 5763 5763 5763 5763 5763 5763 5764 5765 5767 5768 5770 5772 5774 5776 5777 5778 5780 5781 5784 5786 5788 5790 5793 5795 5797 5799 5801 5802 5803 5804 5805 5806 5807 5808 5809 5810 5810 5811 5812 5813 5813 5814 5815 5815 5816 5817 5817 5817 5818 5818 5819 5819 5819 5819 5819 5819 5819 5819 5819 5819 5819 5819 5819 5819 5819 5819 5819 5819 5819 5819 5818 5818 5818 5817 5817 5817 5816 5816 5815 5815 5815 5815 5815
5759 5760 5760 5761 5763 5764 5764 5764 5765 5765 5766 5767 5768 5769 5771 5773 5775 5776 5777 5779 5781 5782 5784 5786 5788 5790 5792 5794 5796 5798 5799 5801 5802 5802 5803 5804 5805 5806 5807 5807 5808 5809 5810 5810 5811 5811 5811 5812 5812 5812 5813 5813 5813 5814 5814 5814 5814 5814 5814 5814 5814 5814 5814 5814 5814 5813 5813 5813 5813 5813 5813 5812 5812 5812 5812 5812 5811 5811 5810 5810 5809 5808 5808 5807 5807 5807 5807
5758 5759 5760 5761 5762 5763 5764 5764 5765 5766 5767 5768 5769 5770 5771 5773 5775 5777 5778 5780 5782 5783 5785 5787 5789 5790 5792 5794 5795 5796 5798 5799 5800 5801 5802 5803 5803 5804 5805 5806 5806 5807 5807 5808 5808 5808 5808 5808 5809 5809 5809 5809 5809 5809 5809 5809 5809 5809 5809 5809 5809 5809 5809 5809 5808 5808 5807 5807 5807 5806 5806 5805 5805 5805 5804 5804 5804 5804 5803 5803 5802 5801 5800 5800 5799 5799 5798
5757 5758 5759 5760 5761 5763 5763 5764 5765 5766 5767 5768 5770 5771 5772 5773 5775 5777 5779 5781 5782 5784 5785 5787 5788 5790 5791 5793 5794 5795 5796 5797 5798 5799 5800 5801 5802 5803 5803 5804 5804 5804 5805 5805 5805 5805 5806 5806 5806 5806 5806 5805 5805 5805 5804 5804 5804 5803 5803 5803 5803 5803 5803 5803 5802 5802 5801 5801 5800 5799 5799 5798 5798 5797 5797 5796 5796 5796 5796 5795 5795 5794 5793 5793 5792 5791 5791
5756 5757 5758 5760 5761 5762 5763 5764 5765 5766 5767 5769 5770 5771 5772 5774 5775 5777 5779 5780 5782 5783 5785 5786 5787 5788 5790 5791 5792 5793 5794 5795 5796 5797 5797 5798 5799 5800 5800 5801 5801 5802 5802 5802 5802 5802 5802 5802 5802 5802 5802 5801 5801 5800 5800 5799 5798 5798 5797 5797 5796 5796 5796 5796 5795 5795 5794 5794 5793 5792 5792 5791 5791 5790 5789 5788 5788 5787 5787 5787 5786 5786 5785 5785 5784 5783 5783
5756 5757 5758 5759 5760 5762 5763 5764 5765 5766 5767 5768 5770 5771 5772 5774 5775 5777 5778 5779 5781 5782 5783 5784 5785 5786 5788 5789 5790 5791 5792 5793 5793 5794 5795 5795 5796 5796 5797 5797 5798 5798 5799 5799 5799 5799 5798 5798 5798 5797 5797 5796 5795 5795 5794 5794 5793 5792 5791 5791 5790 5789 5789 5788 5788 5787 5787 5786 5785 5784 5783 5783 5783 5782 5781 5780 5779 5779 5779 5778 5777 5776 5776 5776 5775 5775 5775
5755 5756 5757 5758 5759 5761 5762 5763 5764 5766 5767 5768 5769 5770 5772 5773 5774 5775 5777 5778 5779 5780 5781 5782 5784 5785 5786 5787 5788 5789 5790 5790 5791 5792 5792 5793 5793 5793 5794 5794 5794 5795 5795 5795 5794 5794 5794 5793 5793 5792 5791 5791 5790 5789 5788 5787 5787 5786 5785 5784 5783 5782 5781 5780 5780 5779 5778 5777 5776 5775 5774 5774 5773 5772 5771 5770 5770 5770 5769 5769 5768 5767 5766 5766 5765 5765 5765
5754 5755 5756 5757 5759 5760 5762 5763 5764 5765 5766 5766 5768 5769 5770 5771 5772 5774 5775 5777 5778 5779 5780 5781 5782 5783 5784 5785 5786 5786 5787 5788 5788 5789 5789 5790 5790 5790 5791 5791 5791 5790 5790 5790 5789 5789 5788 5788 5787 5786 5785 5784 5784 5783 5782 5781 5780 5779 5778 5777 5775 5774 5773 5772 5771 5770 5769 5767 5766 5765 5764 5763 5762 5761 5760 5760 5759 5759 5759 5758 5758 5757 5757 5756 5756 5756 5756
5753 5754 5755 5756 5758 5759 5760 5761 5762 5763 5764 5765 5766 5767 5769 5770 5771 5772 5774 5775 5777 5778 5779 5780 5780 5781 5782 5783 5783 5784 5785 5785 5786 5786 5786 5787 5787 5787 5787 5786 5786 5786 5786 5785 5784 5784 5783 5783 5782 5780 5779 5778 5777 5776 5775 5773 5772 5771 5770 5768 5767 5765 5764 5763 5761 5760 5758 5757 5755 5754 5753 5752 5751 5750 5749 5748 5747 5747 5747 5747 5746 5746 5745 5745 5745 5745 5745
5751 5752 5753 5754 5755 5757 5758 5759 5760 5761 5763 5764 5765 5766 5767 5768 5769 5771 5772 5773 5775 5776 5777 5777 5778 5779 5780 5780 5781 5781 5782 5782 5782 5783 5783 5783 5783 5782 5782 5782 5781 5781 5780 5780 5779 5778 5778 5777 5776 5774 5773 5772 5770 5769 5767 5766 5765 5763 5761 5760 5758 5756 5754 5753 5751 5749 5747 5746 5745 5743 5742 5740 5739 5738 5737 5736 5736 5735 5734 5734 5734 5733 5733 5733 5733 5734 5734
5748 5750 5751 5752 5753 5755 5756 5757 5758 5760 5761 5762 5763 5764 5765 5767 5768 5769 5770 5771 5772 5773 5774 5775 5776 5776 5777 5777 5778 5778 5778 5779 5779 5778 5778 5778 5778 5778 5777 5777 5776 5775 5774 5774 5773 5772 5771 5770 5769 5767 5766 5764 5763 5761 5759 5758 5756 5754 5753 5750 5748 5746 5745 5742 5740 5738 5736 5735 5733 5732 5731 5729 5728 5726 5725 5724 5723 5722 5722 5721 5721 5721 5721 5721 5721 5722 5721
5746 5747 5749 5750 5751 5752 5753 5755 5756 5757 5759 5760 5761 5762 5764 5765 5766 5767 5768 5769 5770 5771 5772 5772 5773 5774 5774 5774 5775 5775 5775 5775 5775 5775 5774 5774 5774 5773 5773 5772 5771 5770 5769 5768 5767 5766 5764 5763 5761 5760 5758 5756 5754 5752 5750 5748 5747 5745 5743 5741 5739 5736 5734 5732 5729 5727 5725 5723 5721 5719 5718 5717 5715 5714 5713 5711 5710 5710 5709 5708 5708 5708 5708 5708 5709 5709 5709
5743 5745 5746 5748 5749 5750 5751 5752 5753 5755 5756 5757 5759 5760 5761 5763 5764 5765 5766 5767 5768 5769 5769 5770 5770 5771 5771 5772 5772 5772 5772 5772 5771 5771 5770 5770 5769 5768 5768 5767 5766 5764 5763 5762 5761 5759 5758 5756 5754 5752 5751 5749 5746 5744 5742 5739 5737 5735 5733 5730 5728 5725 5723 5720 5718 5716 5713 5711 5708 5707 5705 5703 5702 5701 5700 5699 5697 5696 5696 5696 5695 5695 5696 5696 5696 5697 5697
5741 5742 5743 5745 5746 5748 5749 5750 5751 5752 5753 5755 5756 5758 5759 5760 5762 5763 5764 5765 5765 5766 5767 5767 5768 5768 5768 5769 5769 5768 5768 5768 5767 5766 5766 5765 5764 5763 5762 5761 5760 5759 5758 5756 5755 5753 5752 5750 5748 5746 5744 5741 5739 5736 5734 5731 5729 5726 5723 5720 5718 5715 5712 5709 5707 5704 5701 5698 5695 5693 5691 5689 5688 5687 5686 5685 5684 5683 5683 5683 5683 5683 5684 5684 5684 5685 5685
5738 5739 5741 5742 5744 5745 5746 5747 5748 5749 5751 5752 5754 5755 5756 5757 5759 5760 5761 5762 5762 5763 5764 5764 5764 5765 5765 5765 5765 5764 5763 5763 5762 5761 5760 5760 5759 5758 5757 5756 5755 5754 5752 5751 5749 5747 5745 5743 5741 5739 5736 5734 5731 5729 5726 5723 5720 5717 5714 5711 5708 5705 5702 5698 5695 5691 5687 5683 5680 5677 5675 5673 5673 5672 5671 5670 5669 5669 5668 5669 5670 5671 5671 5672 5673 5674 5675
5735 5737 5738 5739 5740 5742 5743 5744 5746 5747 5748 5749 5751 5752 5753 5754 5756 5757 5758 5758 5759 5760 5760 5760 5761 5761 5761 5760 5760 5759 5758 5758 5757 5756 5755 5754 5754 5753 5752 5750 5749 5748 5746 5745 5743 5741 5739 5737 5734 5731 5729 5726 5723 5721 5718 5715 5712 5709 5706 5703 5700 5696 5692 5688 5683 5678 5673 5670 5666 5663 5661 5659 5658 5657 5656 5656 5655 5654 5654 5655 5657 5658 5658 5659 5661 5663 5665
5732 5734 5735 5736 5737 5739 5740 5741 5743 5744 5745 5746 5747 5749 5750 5751 5752 5753 5754 5755 5755 5756 5756 5756 5757 5757 5756 5756 5755 5755 5754 5753 5752 5751 5750 5749 5748 5747 5746 5745 5743 5742 5740 5738 5736 5734 5731 5729 5727 5724 5721 5719 5716 5713 5710 5707 5704 5701 5698 5695 5691 5687 5682 5678 5673 5669 5665 5661 5657 5654 5652 5650 5648 5647 5646 5645 5644 5643 5643 5643 5644 5646 5647 5648 5650 5653 5655
5730 5731 5732 5734 5735 5736 5737 5738 5740 5741 5742 5743 5744 5746 5747 5748 5749 5750 5750 5751 5751 5752 5752 5752 5752 5752 5752 5751 5751 5750 5750 5749 5748 5746 5745 5744 5743 5742 5740 5739 5737 5735 5733 5731 5729 5727 5724 5722 5719 5717 5714 5711 5708 5705 5702 5699 5696 5693 5690 5687 5683 5679 5674 5671 5667 5664 5660 5656 5652 5649 5646 5643 5641 5640 5638 5637 5636 5636 5635 5635 5635 5636 5638 5639 5640 5642 5645
5727 5728 5729 5731 5732 5733 5734 5735 5737 5738 5739 5740 5741 5742 5743 5744 5745 5746 5747 5747 5747 5748 5748 5748 5748 5747 5747 5747 5746 5746 5745 5744 5742 5741 5740 5739 5737 5736 5734 5732 5731 5729 5726 5724 5722 5720 5717 5715 5712 5710 5707 5704 5700 5697 5694 5692 5689 5686 5683 5680 5676 5672 5669 5666 5663 5660 5656 5652 5648 5644 5641 5638 5636 5634 5632 5631 5630 5629 5629 5629 5629 5629 5630 5631 5632 5633 5635
5724 5725 5727 5728 5729 5730 5731 5732 5734 5735 5736 5737 5738 5739 5740 5741 5742 5743 5743 5743 5743 5744 5744 5744 5743 5743 5743 5742 5742 5741 5740 5738 5737 5736 5735 5733 5732 5730 5728 5726 5725 5722 5720 5718 5716 5713 5711 5708 5705 5702 5699 5696 5693 5690 5687 5684 5682 5679 5676 5673 5670 5667 5664 5661 5659 5655 5651 5648 5644 5640 5637 5634 5632 5629 5627 5625 5624 5624 5623 5623 5623 5623 5624 5625 5626 5626 5628
5722 5723 5724 5725 5726 5727 5729 5730 5731 5732 5733 5734 5735 5737 5737 5738 5739 5739 5739 5739 5740 5740 5740 5739 5739 5739 5738 5738 5737 5736 5735 5734 5732 5731 5730 5728 5727 5725 5723 5721 5719 5717 5714 5712 5709 5707 5704 5701 5698 5695 5692 5689 5686 5683 5680 5678 5675 5673 5670 5667 5664 5661 5659 5656 5653 5650 5647 5643 5639 5636 5632 5630 5628 5625 5623 5621 5620 5619 5619 5618 5618 5618 5619 5619 5620 5621 5621
5720 5721 5722 5723 5724 5725 5726 5727 5728 5729 5730 5731 5733 5734 5734 5735 5735 5735 5736 5736 5736 5736 5736 5735 5735 5734 5734 5733 5732 5731 5730 5729 5728 5726 5725 5723 5721 5719 5717 5715 5713 5711 5708 5706 5703 5701 5698 5695 5692 5689 5685 5682 5679 5677 5674 5672 5669 5667 5664 5661 5659 5656 5654 5651 5648 5645 5642 5639 5635 5632 5628 5625 5623 5621 5619 5617 5616 5615 5614 5614 5614 5614 5614 5614 5615 5615 5616
5717 5718 5719 5721 5721 5722 5723 5724 5725 5727 5728 5729 5730 5730 5731 5731 5731 5732 5732 5732 5732 5732 5731 5731 5730 5730 5729 5728 5727 5726 5725 5724 5723 5721 5720 5718 5716 5714 5712 5710 5708 5705 5703 5701 5698 5695 5692 5689 5686 5682 5679 5676 5673 5670 5668 5666 5663 5661 5658 5656 5654 5651 5648 5646 5643 5640 5638 5634 5631 5628 5624 5621 5619 5616 5614 5612 5611 5610 5609 5609 5609 5609 5609 5609 5609 5610 5610
5715 5716 5717 5718 5719 5720 5721 5722 5723 5724 5725 5726 5726 5726 5727 5727 5727 5728 5728 5728 5728 5727 5727 5727 5726 5725 5725 5724 5723 5722 5720 5719 5718 5716 5714 5713 5711 5709 5707 5705 5703 5700 5698 5695 5692 5689 5686 5683 5680 5677 5673 5670 5667 5664 5662 5660 5657 5655 5653 5651 5648 5646 5643 5640 5638 5635 5633 5630 5627 5624 5621 5618 5615 5612 5610 5608 5606 5605 5604 5604 5604 5604 5604 5604 5605 5605 5605
5713 5714 5715 5716 5717 5718 5718 5719 5720 5721 5722 5722 5722 5723 5723 5723 5723 5724 5724 5724 5724 5723 5723 5722 5722 5721 5720 5719 5718 5717 5716 5714 5713 5711 5709 5708 5706 5704 5702 5700 5697 5695 5692 5689 5687 5684 5681 5678 5674 5671 5668 5665 5662 5659 5657 5654 5652 5650 5647 5645 5643 5640 5638 5635 5633 5630 5627 5625 5622 5620 5617 5614 5612 5609 5607 5604 5603 5601 5600 5599 5599 5599 5599 5600 5600 5600 5600
5711 5712 5713 5714 5714 5715 5715 5716 5717 5718 5718 5718 5719 5719 5719 5719 5720 5720 5720 5720 5720 5719 5719 5718 5718 5717 5716 5714 5713 5712 5711 5710 5708 5707 5705 5703 5701 5699 5697 5695 5692 5690 5687 5684 5682 5679 5676 5673 5669 5666 5663 5660 5657 5654 5652 5649 5647 5644 5642 5640 5637 5635 5632 5630 5628 5625 5622 5620 5617 5615 5613 5611 5609 5607 5604 5602 5600 5598 5597 5596 5595 5595 5595 5595 5595 5595 5595